Location: Drocourt
(49.0571°N, 1.7669°E)
Time: 16:14:07
(UTC+00:00)

Vanguard 1 Rocket - Pass Details

Date: 17 April 2024
Orbit: 651 x 4220 km, 34.3° (Epoch: 19 May)

Event Time Altitude Azimuth Distance (km) Brightness Sun altitude
Rises 20:03:38 0° 233° (SW) 3,437 10.7 -11.9°
Reaches altitude 10° 20:06:03 10° 221° (SW) 2,750 10.0 -12.2°
Maximum altitude 20:11:37 28° 163° (SSE) 2,309 9.0 -13.0°
Enters shadow 20:17:38 17° 119° (ESE) 3,673 9.8 -13.8°
